Time,TemperatureF,DewpointF,PressureIn,WindDirection,WindDirectionDegrees,WindSpeedMPH,WindSpeedGustMPH,Humidity,HourlyPrecipIn,Conditions,Clouds,dailyrainin,SoftwareType,DateUTC
2013-01-07 00:00:00,32.5,27.9,30.29,North,5,0.0,0.0,83,0.00,,,0.00,WeatherCatV1.02B3,2013-01-07 06:00:00,
2013-01-07 00:05:00,32.5,27.9,30.29,North,5,0.0,0.0,83,0.00,,,0.00,WeatherCatV1.02B3,2013-01-07 06:05:00,
2013-01-07 00:10:00,32.3,27.7,30.29,North,5,0.0,0.0,83,0.00,,,0.00,WeatherCatV1.02B3,2013-01-07 06:10:00,
2013-01-07 00:15:00,32.3,27.7,30.29,North,5,0.0,0.0,83,0.00,,,0.00,WeatherCatV1.02B3,2013-01-07 06:15:00,
2013-01-07 00:20:00,32.2,27.6,30.29,North,5,0.0,0.0,83,0.00,,,0.00,WeatherCatV1.02B3,2013-01-07 06:20:00,
2013-01-07 00:25:00,32.0,27.1,30.29,North,5,0.0,0.0,82,0.00,,,0.00,WeatherCatV1.02B3,2013-01-07 06:25:00,
2013-01-07 00:30:00,31.9,27.3,30.28,North,5,0.0,0.0,83,0.00,,,0.00,WeatherCatV1.02B3,2013-01-07 06:30:00,
2013-01-07 00:35:00,31.8,27.2,30.28,North,5,0.0,0.0,83,0.00,,,0.00,WeatherCatV1.02B3,2013-01-07 06:35:00,
2013-01-07 00:40:00,31.7,27.1,30.28,North,5,0.0,0.0,83,0.00,,,0.00,WeatherCatV1.02B3,2013-01-07 06:40:00,
2013-01-07 00:45:00,31.6,27.0,30.27,North,5,0.0,0.0,83,0.00,,,0.00,WeatherCatV1.02B3,2013-01-07 06:45:00,
2013-01-07 00:50:00,31.5,26.9,30.27,North,5,0.0,0.0,83,0.00,,,0.00,WeatherCatV1.02B3,2013-01-07 06:50:00,
2013-01-07 00:55:00,31.5,26.9,30.27,North,5,0.0,0.0,83,0.00,,,0.00,WeatherCatV1.02B3,2013-01-07 06:55:00,
2013-01-07 01:00:00,31.4,26.8,30.28,North,5,0.0,0.0,83,0.00,,,0.00,WeatherCatV1.02B3,2013-01-07 07:00:00,
2013-01-07 01:05:00,31.4,26.8,30.28,North,5,0.0,0.0,83,0.00,,,0.00,WeatherCatV1.02B3,2013-01-07 07:05:00,
2013-01-07 01:10:00,31.3,26.7,30.28,North,5,0.0,0.0,83,0.00,,,0.00,WeatherCatV1.02B3,2013-01-07 07:10:00,
2013-01-07 01:15:00,31.3,26.7,30.27,North,5,0.0,0.0,83,0.00,,,0.00,WeatherCatV1.02B3,2013-01-07 07:15:00,
2013-01-07 01:20:00,31.3,27.0,30.27,North,5,0.0,0.0,84,0.00,,,0.00,WeatherCatV1.02B3,2013-01-07 07:20:00,
2013-01-07 01:25:00,31.3,27.0,30.27,North,5,0.0,0.0,84,0.00,,,0.00,WeatherCatV1.02B3,2013-01-07 07:25:00,
2013-01-07 01:30:00,31.3,27.0,30.27,North,5,0.0,0.0,84,0.00,,,0.00,WeatherCatV1.02B3,2013-01-07 07:30:00,
2013-01-07 01:35:00,31.2,26.9,30.27,North,5,0.0,0.0,84,0.00,,,0.00,WeatherCatV1.02B3,2013-01-07 07:35:00,
2013-01-07 01:40:00,31.2,26.9,30.27,North,5,0.0,0.0,84,0.00,,,0.00,WeatherCatV1.02B3,2013-01-07 07:40:00,
2013-01-07 01:45:00,31.1,26.8,30.27,North,5,0.0,0.0,84,0.00,,,0.00,WeatherCatV1.02B3,2013-01-07 07:45:00,
2013-01-07 01:50:00,31.0,27.0,30.27,North,5,0.0,0.0,85,0.00,,,0.00,WeatherCatV1.02B3,2013-01-07 07:50:00,
2013-01-07 01:55:00,31.0,26.7,30.27,North,5,0.0,0.0,84,0.00,,,0.00,WeatherCatV1.02B3,2013-01-07 07:55:00,
2013-01-07 02:00:00,31.0,26.7,30.27,North,5,0.0,0.0,84,0.00,,,0.00,WeatherCatV1.02B3,2013-01-07 08:00:00,
2013-01-07 02:05:00,31.0,26.7,30.27,North,5,0.0,0.0,84,0.00,,,0.00,WeatherCatV1.02B3,2013-01-07 08:05:00,
2013-01-07 02:10:00,30.9,26.4,30.27,North,5,0.0,0.0,83,0.00,,,0.00,WeatherCatV1.02B3,2013-01-07 08:10:00,
2013-01-07 02:15:00,30.8,26.0,30.26,North,5,0.0,0.0,82,0.00,,,0.00,WeatherCatV1.02B3,2013-01-07 08:15:00,
2013-01-07 02:20:00,30.7,26.2,30.26,North,5,0.0,0.0,83,0.00,,,0.00,WeatherCatV1.02B3,2013-01-07 08:20:00,
2013-01-07 02:25:00,30.7,25.9,30.26,North,5,0.0,0.0,82,0.00,,,0.00,WeatherCatV1.02B3,2013-01-07 08:25:00,
2013-01-07 02:30:00,30.6,25.8,30.26,North,5,0.0,0.0,82,0.00,,,0.00,WeatherCatV1.02B3,2013-01-07 08:30:00,
2013-01-07 02:35:00,30.6,25.8,30.26,North,5,1.0,2.0,82,0.00,,,0.00,WeatherCatV1.02B3,2013-01-07 08:35:00,
2013-01-07 02:40:00,30.6,25.5,30.26,NE,51,1.0,2.0,81,0.00,,,0.00,WeatherCatV1.02B3,2013-01-07 08:40:00,
2013-01-07 02:45:00,30.8,25.4,30.25,NE,53,2.0,2.0,80,0.00,,,0.00,WeatherCatV1.02B3,2013-01-07 08:45:00,
2013-01-07 02:49:00,31.0,25.3,30.25,ENE,61,1.0,2.0,79,0.00,,,0.00,WeatherCatV1.02B3,2013-01-07 08:49:00,
2013-01-07 02:54:00,31.5,25.1,30.25,ENE,67,0.0,3.0,77,0.00,,,0.00,WeatherCatV1.02B3,2013-01-07 08:54:00,
2013-01-07 02:59:00,32.1,25.1,30.25,ENE,61,0.0,4.0,75,0.00,,,0.00,WeatherCatV1.02B3,2013-01-07 08:59:00,
2013-01-07 03:04:00,32.5,25.2,30.25,East,84,1.0,2.0,74,0.00,,,0.00,WeatherCatV1.02B3,2013-01-07 09:04:00,
2013-01-07 03:09:00,33.0,25.3,30.25,East,84,0.0,1.0,73,0.00,,,0.00,WeatherCatV1.02B3,2013-01-07 09:09:00,
2013-01-07 03:14:00,33.2,25.2,30.25,East,86,1.0,3.0,72,0.00,,,0.00,WeatherCatV1.02B3,2013-01-07 09:14:00,
2013-01-07 03:19:00,33.4,25.0,30.25,East,88,0.0,1.0,71,0.00,,,0.00,WeatherCatV1.02B3,2013-01-07 09:19:00,
2013-01-07 03:24:00,33.6,25.2,30.25,ENE,73,0.0,1.0,71,0.00,,,0.00,WeatherCatV1.02B3,2013-01-07 09:24:00,
2013-01-07 03:29:00,33.7,25.0,30.25,East,88,0.0,1.0,70,0.00,,,0.00,WeatherCatV1.02B3,2013-01-07 09:29:00,
2013-01-07 03:34:00,33.8,24.7,30.25,East,80,2.0,3.0,69,0.00,,,0.00,WeatherCatV1.02B3,2013-01-07 09:34:00,
2013-01-07 03:39:00,33.9,24.8,30.25,East,82,0.0,0.0,69,0.00,,,0.00,WeatherCatV1.02B3,2013-01-07 09:39:00,
2013-01-07 03:44:00,34.0,24.9,30.25,East,83,0.0,0.0,69,0.00,,,0.00,WeatherCatV1.02B3,2013-01-07 09:44:00,
2013-01-07 03:49:00,33.9,24.8,30.25,East,83,0.0,0.0,69,0.00,,,0.00,WeatherCatV1.02B3,2013-01-07 09:49:00,
2013-01-07 03:54:00,33.8,24.7,30.25,East,83,0.0,0.0,69,0.00,,,0.00,WeatherCatV1.02B3,2013-01-07 09:54:00,
2013-01-07 03:59:00,33.7,24.6,30.25,East,83,0.0,0.0,69,0.00,,,0.00,WeatherCatV1.02B3,2013-01-07 09:59:00,
2013-01-07 04:04:00,33.5,25.1,30.25,East,83,0.0,0.0,71,0.00,,,0.00,WeatherCatV1.02B3,2013-01-07 10:04:00,
2013-01-07 04:09:00,33.3,24.9,30.25,East,83,0.0,0.0,71,0.00,,,0.00,WeatherCatV1.02B3,2013-01-07 10:09:00,
2013-01-07 04:14:00,33.1,24.4,30.26,East,83,0.0,0.0,70,0.00,,,0.00,WeatherCatV1.02B3,2013-01-07 10:14:00,
2013-01-07 04:19:00,32.8,24.4,30.26,East,83,0.0,0.0,71,0.00,,,0.00,WeatherCatV1.02B3,2013-01-07 10:19:00,
2013-01-07 04:24:00,32.5,24.5,30.26,East,83,0.0,0.0,72,0.00,,,0.00,WeatherCatV1.02B3,2013-01-07 10:24:00,
2013-01-07 04:29:00,32.3,24.3,30.25,East,83,0.0,1.0,72,0.00,,,0.00,WeatherCatV1.02B3,2013-01-07 10:29:00,
2013-01-07 04:34:00,32.0,23.7,30.25,East,83,0.0,0.0,71,0.00,,,0.00,WeatherCatV1.02B3,2013-01-07 10:34:00,
2013-01-07 04:39:00,31.8,24.1,30.25,East,83,0.0,0.0,73,0.00,,,0.00,WeatherCatV1.02B3,2013-01-07 10:39:00,
2013-01-07 04:44:00,31.6,24.3,30.25,East,83,0.0,0.0,74,0.00,,,0.00,WeatherCatV1.02B3,2013-01-07 10:44:00,
2013-01-07 04:49:00,31.4,24.1,30.25,East,83,0.0,1.0,74,0.00,,,0.00,WeatherCatV1.02B3,2013-01-07 10:49:00,
2013-01-07 04:54:00,31.2,23.6,30.25,East,83,0.0,0.0,73,0.00,,,0.00,WeatherCatV1.02B3,2013-01-07 10:54:00,
2013-01-07 04:59:00,31.1,23.8,30.24,East,83,0.0,1.0,74,0.00,,,0.00,WeatherCatV1.02B3,2013-01-07 10:59:00,
2013-01-07 05:04:00,31.0,23.7,30.24,NE,50,0.0,3.0,74,0.00,,,0.00,WeatherCatV1.02B3,2013-01-07 11:04:00,
2013-01-07 05:09:00,31.1,23.8,30.24,NE,50,1.0,2.0,74,0.00,,,0.00,WeatherCatV1.02B3,2013-01-07 11:09:00,
2013-01-07 05:14:00,31.2,23.9,30.25,East,81,0.0,3.0,74,0.00,,,0.00,WeatherCatV1.02B3,2013-01-07 11:14:00,
2013-01-07 05:19:00,31.4,24.1,30.25,East,82,1.0,2.0,74,0.00,,,0.00,WeatherCatV1.02B3,2013-01-07 11:19:00,
2013-01-07 05:24:00,31.4,24.1,30.25,East,82,0.0,1.0,74,0.00,,,0.00,WeatherCatV1.02B3,2013-01-07 11:24:00,
2013-01-07 05:29:00,31.5,24.2,30.25,East,82,0.0,0.0,74,0.00,,,0.00,WeatherCatV1.02B3,2013-01-07 11:29:00,
2013-01-07 05:34:00,31.4,24.1,30.25,East,81,0.0,0.0,74,0.00,,,0.00,WeatherCatV1.02B3,2013-01-07 11:34:00,
2013-01-07 05:39:00,31.2,23.9,30.25,East,82,0.0,0.0,74,0.00,,,0.00,WeatherCatV1.02B3,2013-01-07 11:39:00,
2013-01-07 05:44:00,31.0,23.7,30.25,East,81,0.0,0.0,74,0.00,,,0.00,WeatherCatV1.02B3,2013-01-07 11:44:00,
2013-01-07 05:49:00,30.8,23.2,30.25,East,82,0.0,0.0,73,0.00,,,0.00,WeatherCatV1.02B3,2013-01-07 11:49:00,
2013-01-07 05:54:00,30.6,23.3,30.25,East,82,0.0,0.0,74,0.00,,,0.00,WeatherCatV1.02B3,2013-01-07 11:54:00,
2013-01-07 05:59:00,30.5,23.5,30.25,East,81,0.0,0.0,75,0.00,,,0.00,WeatherCatV1.02B3,2013-01-07 11:59:00,
2013-01-07 06:04:00,30.3,23.7,30.25,East,82,0.0,0.0,76,0.00,,,0.00,WeatherCatV1.02B3,2013-01-07 12:04:00,
2013-01-07 06:09:00,30.2,23.6,30.25,East,82,0.0,0.0,76,0.00,,,0.00,WeatherCatV1.02B3,2013-01-07 12:09:00,
2013-01-07 06:14:00,30.0,23.4,30.26,East,82,0.0,0.0,76,0.00,,,0.00,WeatherCatV1.02B3,2013-01-07 12:14:00,
2013-01-07 06:19:00,29.8,23.2,30.26,East,82,0.0,0.0,76,0.00,,,0.00,WeatherCatV1.02B3,2013-01-07 12:19:00,
2013-01-07 06:24:00,29.7,23.4,30.26,East,82,0.0,0.0,77,0.00,,,0.00,WeatherCatV1.02B3,2013-01-07 12:24:00,
2013-01-07 06:29:00,29.5,22.9,30.26,East,82,0.0,0.0,76,0.00,,,0.00,WeatherCatV1.02B3,2013-01-07 12:29:00,
2013-01-07 06:34:00,29.4,23.4,30.26,East,82,0.0,0.0,78,0.00,,,0.00,WeatherCatV1.02B3,2013-01-07 12:34:00,
2013-01-07 06:39:00,29.3,23.3,30.26,East,81,0.0,0.0,78,0.00,,,0.00,WeatherCatV1.02B3,2013-01-07 12:39:00,
2013-01-07 06:44:00,29.1,23.1,30.26,East,82,0.0,0.0,78,0.00,,,0.00,WeatherCatV1.02B3,2013-01-07 12:44:00,
2013-01-07 06:49:00,28.9,22.9,30.26,East,82,0.0,0.0,78,0.00,,,0.00,WeatherCatV1.02B3,2013-01-07 12:49:00,
2013-01-07 06:54:00,28.8,22.8,30.26,East,82,0.0,0.0,78,0.00,,,0.00,WeatherCatV1.02B3,2013-01-07 12:54:00,
2013-01-07 06:59:00,28.7,23.0,30.27,East,82,0.0,0.0,79,0.00,,,0.00,WeatherCatV1.02B3,2013-01-07 12:59:00,
2013-01-07 07:04:00,28.5,22.8,30.27,East,81,0.0,0.0,79,0.00,,,0.00,WeatherCatV1.02B3,2013-01-07 13:04:00,
2013-01-07 07:09:00,28.5,23.1,30.27,East,82,0.0,0.0,80,0.00,,,0.00,WeatherCatV1.02B3,2013-01-07 13:09:00,
2013-01-07 07:14:00,28.4,23.0,30.27,East,82,0.0,0.0,80,0.00,,,0.00,WeatherCatV1.02B3,2013-01-07 13:14:00,
2013-01-07 07:19:00,28.3,23.2,30.27,East,82,0.0,0.0,81,0.00,,,0.00,WeatherCatV1.02B3,2013-01-07 13:19:00,
2013-01-07 07:24:00,28.3,23.5,30.27,East,82,0.0,0.0,82,0.00,,,0.00,WeatherCatV1.02B3,2013-01-07 13:24:00,
2013-01-07 07:29:00,28.2,23.4,30.28,East,82,0.0,0.0,82,0.00,,,0.00,WeatherCatV1.02B3,2013-01-07 13:29:00,
2013-01-07 07:34:00,28.1,23.3,30.28,East,82,0.0,0.0,82,0.00,,,0.00,WeatherCatV1.02B3,2013-01-07 13:34:00,
2013-01-07 07:39:00,28.0,23.2,30.28,East,82,0.0,0.0,82,0.00,,,0.00,WeatherCatV1.02B3,2013-01-07 13:39:00,
2013-01-07 07:44:00,28.0,23.2,30.27,East,82,0.0,0.0,82,0.00,,,0.00,WeatherCatV1.02B3,2013-01-07 13:44:00,
2013-01-07 07:49:00,27.9,23.1,30.27,East,82,0.0,0.0,82,0.00,,,0.00,WeatherCatV1.02B3,2013-01-07 13:49:00,
2013-01-07 07:54:00,27.9,23.1,30.27,East,81,0.0,0.0,82,0.00,,,0.00,WeatherCatV1.02B3,2013-01-07 13:54:00,
2013-01-07 07:59:00,27.9,23.4,30.28,East,82,0.0,0.0,83,0.00,,,0.00,WeatherCatV1.02B3,2013-01-07 13:59:00,
2013-01-07 08:04:00,28.0,23.8,30.28,East,82,0.0,0.0,84,0.00,,,0.00,WeatherCatV1.02B3,2013-01-07 14:04:00,
2013-01-07 08:09:00,28.2,24.0,30.28,East,82,0.0,0.0,84,0.00,,,0.00,WeatherCatV1.02B3,2013-01-07 14:09:00,
2013-01-07 08:14:00,28.5,24.6,30.28,East,82,0.0,0.0,85,0.00,,,0.00,WeatherCatV1.02B3,2013-01-07 14:14:00,
2013-01-07 08:19:00,28.7,24.8,30.28,East,82,0.0,0.0,85,0.00,,,0.00,WeatherCatV1.02B3,2013-01-07 14:19:00,
2013-01-07 08:24:00,28.9,25.0,30.28,East,82,0.0,0.0,85,0.00,,,0.00,WeatherCatV1.02B3,2013-01-07 14:24:00,
2013-01-07 08:29:00,29.2,25.3,30.28,East,82,0.0,0.0,85,0.00,,,0.00,WeatherCatV1.02B3,2013-01-07 14:29:00,
2013-01-07 08:34:00,29.5,25.6,30.28,East,82,0.0,0.0,85,0.00,,,0.00,WeatherCatV1.02B3,2013-01-07 14:34:00,
2013-01-07 08:39:00,29.8,26.1,30.28,East,82,0.0,1.0,86,0.00,,,0.00,WeatherCatV1.02B3,2013-01-07 14:39:00,
2013-01-07 08:44:00,30.1,26.4,30.29,East,82,0.0,0.0,86,0.00,,,0.00,WeatherCatV1.02B3,2013-01-07 14:44:00,
2013-01-07 08:49:00,30.4,26.7,30.29,East,82,0.0,0.0,86,0.00,,,0.00,WeatherCatV1.02B3,2013-01-07 14:49:00,
2013-01-07 08:54:00,31.0,27.0,30.29,ENE,76,0.0,3.0,85,0.00,,,0.00,WeatherCatV1.02B3,2013-01-07 14:54:00,
2013-01-07 08:59:00,31.8,27.8,30.28,East,84,0.0,3.0,85,0.00,,,0.00,WeatherCatV1.02B3,2013-01-07 14:59:00,
2013-01-07 09:04:00,32.6,28.0,30.28,ESE,117,0.0,1.0,83,0.00,,,0.00,WeatherCatV1.02B3,2013-01-07 15:04:00,
2013-01-07 09:09:00,33.5,28.3,30.28,ENE,76,0.0,1.0,81,0.00,,,0.00,WeatherCatV1.02B3,2013-01-07 15:09:00,
2013-01-07 09:14:00,34.3,28.8,30.29,East,83,0.0,2.0,80,0.00,,,0.00,WeatherCatV1.02B3,2013-01-07 15:14:00,
2013-01-07 09:19:00,35.1,28.9,30.29,East,83,0.0,0.0,78,0.00,,,0.00,WeatherCatV1.02B3,2013-01-07 15:19:00,
2013-01-07 09:24:00,36.0,29.8,30.29,East,83,0.0,0.0,78,0.00,,,0.00,WeatherCatV1.02B3,2013-01-07 15:24:00,
2013-01-07 09:29:00,36.9,29.7,30.29,ESE,115,2.0,4.0,75,0.00,,,0.00,WeatherCatV1.02B3,2013-01-07 15:29:00,
2013-01-07 09:34:00,37.7,30.5,30.29,East,91,0.0,3.0,75,0.00,,,0.00,WeatherCatV1.02B3,2013-01-07 15:34:00,
2013-01-07 09:39:00,38.5,31.3,30.29,South,173,0.0,0.0,75,0.00,,,0.00,WeatherCatV1.02B3,2013-01-07 15:39:00,
2013-01-07 09:44:00,39.2,31.6,30.28,ESE,119,3.0,6.0,74,0.00,,,0.00,WeatherCatV1.02B3,2013-01-07 15:44:00,
2013-01-07 09:49:00,39.9,32.0,30.28,ESE,121,1.0,4.0,73,0.00,,,0.00,WeatherCatV1.02B3,2013-01-07 15:49:00,
2013-01-07 09:54:00,40.5,32.2,30.28,SE,142,0.0,1.0,72,0.00,,,0.00,WeatherCatV1.02B3,2013-01-07 15:54:00,
2013-01-07 09:59:00,41.0,32.7,30.28,ESE,123,0.0,2.0,72,0.00,,,0.00,WeatherCatV1.02B3,2013-01-07 15:59:00,
2013-01-07 10:04:00,41.6,33.3,30.28,ESE,109,0.0,2.0,72,0.00,,,0.00,WeatherCatV1.02B3,2013-01-07 16:04:00,
2013-01-07 10:09:00,42.2,34.2,30.28,ESE,107,0.0,4.0,73,0.00,,,0.00,WeatherCatV1.02B3,2013-01-07 16:09:00,
2013-01-07 10:14:00,42.9,34.5,30.28,SE,144,0.0,4.0,72,0.00,,,0.00,WeatherCatV1.02B3,2013-01-07 16:14:00,
2013-01-07 10:19:00,43.5,35.4,30.28,SE,145,3.0,6.0,73,0.00,,,0.00,WeatherCatV1.02B3,2013-01-07 16:19:00,
2013-01-07 10:24:00,44.2,35.8,30.28,SSE,159,0.0,1.0,72,0.00,,,0.00,WeatherCatV1.02B3,2013-01-07 16:24:00,
2013-01-07 10:29:00,44.9,36.1,30.27,SE,139,0.0,4.0,71,0.00,,,0.00,WeatherCatV1.02B3,2013-01-07 16:29:00,
2013-01-07 10:34:00,45.6,36.7,30.27,SSW,205,0.0,1.0,71,0.00,,,0.00,WeatherCatV1.02B3,2013-01-07 16:34:00,
2013-01-07 10:39:00,46.4,37.2,30.27,SSE,166,4.0,7.0,70,0.00,,,0.00,WeatherCatV1.02B3,2013-01-07 16:39:00,
2013-01-07 10:44:00,47.3,37.7,30.26,East,82,2.0,4.0,69,0.00,,,0.00,WeatherCatV1.02B3,2013-01-07 16:44:00,
2013-01-07 10:49:00,48.1,38.0,30.26,SSW,194,0.0,6.0,68,0.00,,,0.00,WeatherCatV1.02B3,2013-01-07 16:49:00,
2013-01-07 10:54:00,48.7,37.5,30.26,South,171,9.0,10.0,65,0.00,,,0.00,WeatherCatV1.02B3,2013-01-07 16:54:00,
2013-01-07 10:59:00,49.1,37.5,30.27,SSE,165,5.0,7.0,64,0.00,,,0.00,WeatherCatV1.02B3,2013-01-07 16:59:00,
2013-01-07 11:04:00,49.4,37.3,30.27,South,188,0.0,7.0,63,0.00,,,0.00,WeatherCatV1.02B3,2013-01-07 17:04:00,
2013-01-07 11:09:00,50.0,37.5,30.27,SSE,164,0.0,1.0,62,0.00,,,0.00,WeatherCatV1.02B3,2013-01-07 17:09:00,
2013-01-07 11:14:00,50.7,38.2,30.26,SSE,168,0.0,4.0,62,0.00,,,0.00,WeatherCatV1.02B3,2013-01-07 17:14:00,
2013-01-07 11:19:00,51.6,37.7,30.26,South,173,0.0,8.0,59,0.00,,,0.00,WeatherCatV1.02B3,2013-01-07 17:19:00,
2013-01-07 11:24:00,52.3,38.4,30.26,SSE,152,5.0,9.0,59,0.00,,,0.00,WeatherCatV1.02B3,2013-01-07 17:24:00,
2013-01-07 11:29:00,53.1,37.8,30.25,SSE,162,0.0,7.0,56,0.00,,,0.00,WeatherCatV1.02B3,2013-01-07 17:29:00,
2013-01-07 11:34:00,53.5,36.8,30.25,South,181,4.0,13.0,53,0.00,,,0.00,WeatherCatV1.02B3,2013-01-07 17:34:00,
2013-01-07 11:39:00,53.6,36.9,30.25,SSE,165,4.0,6.0,53,0.00,,,0.00,WeatherCatV1.02B3,2013-01-07 17:39:00,
2013-01-07 11:44:00,53.8,37.5,30.24,SE,139,7.0,7.0,54,0.00,,,0.00,WeatherCatV1.02B3,2013-01-07 17:44:00,
2013-01-07 11:49:00,54.4,37.1,30.24,South,182,1.0,11.0,52,0.00,,,0.00,WeatherCatV1.02B3,2013-01-07 17:49:00,
2013-01-07 11:54:00,54.8,37.5,30.24,SW,226,1.0,9.0,52,0.00,,,0.00,WeatherCatV1.02B3,2013-01-07 17:54:00,
2013-01-07 11:59:00,54.9,37.1,30.23,South,177,5.0,9.0,51,0.00,,,0.00,WeatherCatV1.02B3,2013-01-07 17:59:00,
2013-01-07 12:04:00,54.6,36.8,30.23,SW,223,3.0,6.0,51,0.00,,,0.00,WeatherCatV1.02B3,2013-01-07 18:04:00,
2013-01-07 12:09:00,54.2,37.0,30.23,SSW,201,2.0,4.0,52,0.00,,,0.00,WeatherCatV1.02B3,2013-01-07 18:09:00,
2013-01-07 12:14:00,54.0,37.3,30.23,SE,140,0.0,4.0,53,0.00,,,0.00,WeatherCatV1.02B3,2013-01-07 18:14:00,
2013-01-07 12:19:00,54.0,36.8,30.23,SW,227,0.0,5.0,52,0.00,,,0.00,WeatherCatV1.02B3,2013-01-07 18:19:00,
2013-01-07 12:24:00,54.0,36.8,30.23,South,173,0.0,4.0,52,0.00,,,0.00,WeatherCatV1.02B3,2013-01-07 18:24:00,
2013-01-07 12:29:00,54.0,36.8,30.22,SSW,194,3.0,3.0,52,0.00,,,0.00,WeatherCatV1.02B3,2013-01-07 18:29:00,
2013-01-07 12:34:00,54.0,36.3,30.22,South,186,4.0,5.0,51,0.00,,,0.00,WeatherCatV1.02B3,2013-01-07 18:34:00,
2013-01-07 12:39:00,54.3,36.1,30.22,SSE,168,1.0,5.0,50,0.00,,,0.00,WeatherCatV1.02B3,2013-01-07 18:39:00,
2013-01-07 12:44:00,54.9,36.6,30.20,South,184,4.0,4.0,50,0.00,,,0.00,WeatherCatV1.02B3,2013-01-07 18:44:00,
2013-01-07 12:49:00,55.4,36.6,30.20,South,186,4.0,4.0,49,0.00,,,0.00,WeatherCatV1.02B3,2013-01-07 18:49:00,
2013-01-07 12:54:00,55.7,35.8,30.20,SSW,195,4.0,6.0,47,0.00,,,0.00,WeatherCatV1.02B3,2013-01-07 18:54:00,
2013-01-07 12:59:00,55.9,36.5,30.18,SSE,163,1.0,9.0,48,0.00,,,0.00,WeatherCatV1.02B3,2013-01-07 18:59:00,
2013-01-07 13:04:00,56.2,36.8,30.18,ESE,105,0.0,6.0,48,0.00,,,0.00,WeatherCatV1.02B3,2013-01-07 19:04:00,
2013-01-07 13:09:00,56.5,36.0,30.18,South,189,8.0,8.0,46,0.00,,,0.00,WeatherCatV1.02B3,2013-01-07 19:09:00,
2013-01-07 13:14:00,56.4,36.4,30.18,South,178,5.0,5.0,47,0.00,,,0.00,WeatherCatV1.02B3,2013-01-07 19:14:00,
2013-01-07 13:19:00,56.4,35.9,30.18,SW,223,4.0,6.0,46,0.00,,,0.00,WeatherCatV1.02B3,2013-01-07 19:19:00,
2013-01-07 13:24:00,56.6,36.1,30.18,SW,220,2.0,9.0,46,0.00,,,0.00,WeatherCatV1.02B3,2013-01-07 19:24:00,
2013-01-07 13:29:00,56.7,35.6,30.17,South,179,5.0,5.0,45,0.00,,,0.00,WeatherCatV1.02B3,2013-01-07 19:29:00,
2013-01-07 13:34:00,56.9,35.2,30.17,SSE,168,4.0,5.0,44,0.00,,,0.00,WeatherCatV1.02B3,2013-01-07 19:34:00,
2013-01-07 13:39:00,56.9,35.8,30.17,ESE,106,0.0,3.0,45,0.00,,,0.00,WeatherCatV1.02B3,2013-01-07 19:39:00,
2013-01-07 13:44:00,57.5,35.8,30.15,SSW,197,4.0,10.0,44,0.00,,,0.00,WeatherCatV1.02B3,2013-01-07 19:44:00,
2013-01-07 13:49:00,57.5,35.2,30.15,South,169,1.0,6.0,43,0.00,,,0.00,WeatherCatV1.02B3,2013-01-07 19:49:00,
2013-01-07 13:54:00,57.1,35.4,30.15,South,190,5.0,6.0,44,0.00,,,0.00,WeatherCatV1.02B3,2013-01-07 19:54:00,
2013-01-07 13:59:00,56.5,35.4,30.15,WSW,251,0.0,7.0,45,0.00,,,0.00,WeatherCatV1.02B3,2013-01-07 19:59:00,
2013-01-07 14:04:00,56.4,35.3,30.15,South,173,6.0,9.0,45,0.00,,,0.00,WeatherCatV1.02B3,2013-01-07 20:04:00,
2013-01-07 14:09:00,56.2,35.1,30.15,SSW,198,2.0,3.0,45,0.00,,,0.00,WeatherCatV1.02B3,2013-01-07 20:09:00,
2013-01-07 14:14:00,56.2,34.6,30.14,SSE,155,3.0,7.0,44,0.00,,,0.00,WeatherCatV1.02B3,2013-01-07 20:14:00,
2013-01-07 14:19:00,56.2,35.1,30.14,SSW,192,2.0,5.0,45,0.00,,,0.00,WeatherCatV1.02B3,2013-01-07 20:19:00,
2013-01-07 14:24:00,56.2,35.1,30.14,SSW,207,2.0,3.0,45,0.00,,,0.00,WeatherCatV1.02B3,2013-01-07 20:24:00,
2013-01-07 14:29:00,56.0,34.4,30.13,South,190,5.0,7.0,44,0.00,,,0.00,WeatherCatV1.02B3,2013-01-07 20:29:00,
2013-01-07 14:34:00,55.8,34.8,30.13,South,171,0.0,3.0,45,0.00,,,0.00,WeatherCatV1.02B3,2013-01-07 20:34:00,
2013-01-07 14:39:00,55.7,35.2,30.13,South,184,7.0,7.0,46,0.00,,,0.00,WeatherCatV1.02B3,2013-01-07 20:39:00,
2013-01-07 14:44:00,55.6,35.2,30.12,SSE,161,2.0,7.0,46,0.00,,,0.00,WeatherCatV1.02B3,2013-01-07 20:44:00,
2013-01-07 14:49:00,55.8,34.8,30.12,South,185,0.0,5.0,45,0.00,,,0.00,WeatherCatV1.02B3,2013-01-07 20:49:00,
2013-01-07 14:54:00,55.9,34.9,30.12,South,184,5.0,5.0,45,0.00,,,0.00,WeatherCatV1.02B3,2013-01-07 20:54:00,
2013-01-07 14:59:00,56.1,33.9,30.12,SSE,147,2.0,3.0,43,0.00,,,0.00,WeatherCatV1.02B3,2013-01-07 20:59:00,
2013-01-07 15:04:00,56.1,35.1,30.12,SE,140,0.0,6.0,45,0.00,,,0.00,WeatherCatV1.02B3,2013-01-07 21:04:00,
2013-01-07 15:09:00,56.0,35.0,30.12,South,187,0.0,5.0,45,0.00,,,0.00,WeatherCatV1.02B3,2013-01-07 21:09:00,
2013-01-07 15:14:00,56.0,35.0,30.11,SSE,161,1.0,7.0,45,0.00,,,0.00,WeatherCatV1.02B3,2013-01-07 21:14:00,
2013-01-07 15:19:00,56.0,35.0,30.11,SSE,160,4.0,5.0,45,0.00,,,0.00,WeatherCatV1.02B3,2013-01-07 21:19:00,
2013-01-07 15:24:00,55.9,35.4,30.11,East,101,0.0,2.0,46,0.00,,,0.00,WeatherCatV1.02B3,2013-01-07 21:24:00,
2013-01-07 15:29:00,56.0,35.0,30.10,SSE,149,5.0,5.0,45,0.00,,,0.00,WeatherCatV1.02B3,2013-01-07 21:29:00,
2013-01-07 15:34:00,56.1,34.5,30.10,SSE,158,4.0,6.0,44,0.00,,,0.00,WeatherCatV1.02B3,2013-01-07 21:34:00,
2013-01-07 15:39:00,56.6,34.4,30.10,South,173,3.0,12.0,43,0.00,,,0.00,WeatherCatV1.02B3,2013-01-07 21:39:00,
2013-01-07 15:44:00,57.1,34.2,30.10,SE,136,9.0,9.0,42,0.00,,,0.00,WeatherCatV1.02B3,2013-01-07 21:44:00,
2013-01-07 15:49:00,57.3,34.4,30.10,SE,142,4.0,10.0,42,0.00,,,0.00,WeatherCatV1.02B3,2013-01-07 21:49:00,
2013-01-07 15:54:00,57.6,34.7,30.10,ESE,113,5.0,5.0,42,0.00,,,0.00,WeatherCatV1.02B3,2013-01-07 21:54:00,
2013-01-07 15:59:00,57.6,34.7,30.10,SSE,161,2.0,7.0,42,0.00,,,0.00,WeatherCatV1.02B3,2013-01-07 21:59:00,
2013-01-07 16:04:00,57.0,34.1,30.10,South,173,0.0,8.0,42,0.00,,,0.00,WeatherCatV1.02B3,2013-01-07 22:04:00,
2013-01-07 16:09:00,56.3,34.7,30.10,South,184,0.0,4.0,44,0.00,,,0.00,WeatherCatV1.02B3,2013-01-07 22:09:00,
2013-01-07 16:14:00,55.7,34.7,30.12,SSE,167,0.0,5.0,45,0.00,,,0.00,WeatherCatV1.02B3,2013-01-07 22:14:00,
2013-01-07 16:19:00,55.1,34.1,30.12,South,172,0.0,4.0,45,0.00,,,0.00,WeatherCatV1.02B3,2013-01-07 22:19:00,
2013-01-07 16:24:00,54.8,34.4,30.12,SSE,151,0.0,0.0,46,0.00,,,0.00,WeatherCatV1.02B3,2013-01-07 22:24:00,
2013-01-07 16:29:00,54.6,34.8,30.11,East,92,0.0,1.0,47,0.00,,,0.00,WeatherCatV1.02B3,2013-01-07 22:29:00,
2013-01-07 16:34:00,54.5,35.2,30.11,ESE,114,0.0,4.0,48,0.00,,,0.00,WeatherCatV1.02B3,2013-01-07 22:34:00,
2013-01-07 16:39:00,54.3,35.6,30.11,SE,135,0.0,1.0,49,0.00,,,0.00,WeatherCatV1.02B3,2013-01-07 22:39:00,
2013-01-07 16:44:00,54.3,35.6,30.11,SE,135,0.0,1.0,49,0.00,,,0.00,WeatherCatV1.02B3,2013-01-07 22:44:00,
2013-01-07 16:49:00,54.2,35.5,30.11,SE,134,0.0,1.0,49,0.00,,,0.00,WeatherCatV1.02B3,2013-01-07 22:49:00,
2013-01-07 16:54:00,54.0,35.8,30.11,SE,134,0.0,0.0,50,0.00,,,0.00,WeatherCatV1.02B3,2013-01-07 22:54:00,
2013-01-07 16:59:00,53.8,35.6,30.12,SE,128,0.0,1.0,50,0.00,,,0.00,WeatherCatV1.02B3,2013-01-07 22:59:00,
2013-01-07 17:04:00,53.6,35.9,30.12,SE,128,0.0,0.0,51,0.00,,,0.00,WeatherCatV1.02B3,2013-01-07 23:04:00,
2013-01-07 17:09:00,53.3,35.6,30.12,SE,128,0.0,0.0,51,0.00,,,0.00,WeatherCatV1.02B3,2013-01-07 23:09:00,
2013-01-07 17:14:00,53.1,36.4,30.11,SE,128,0.0,0.0,53,0.00,,,0.00,WeatherCatV1.02B3,2013-01-07 23:14:00,
2013-01-07 17:19:00,52.8,36.6,30.11,SE,128,0.0,0.0,54,0.00,,,0.00,WeatherCatV1.02B3,2013-01-07 23:19:00,
2013-01-07 17:24:00,52.6,36.4,30.11,SE,128,0.0,0.0,54,0.00,,,0.00,WeatherCatV1.02B3,2013-01-07 23:24:00,
2013-01-07 17:29:00,52.3,36.6,30.10,SE,128,0.0,0.0,55,0.00,,,0.00,WeatherCatV1.02B3,2013-01-07 23:29:00,
2013-01-07 17:34:00,52.0,36.3,30.10,SE,128,0.0,0.0,55,0.00,,,0.00,WeatherCatV1.02B3,2013-01-07 23:34:00,
2013-01-07 17:39:00,51.5,36.3,30.10,SE,128,0.0,0.0,56,0.00,,,0.00,WeatherCatV1.02B3,2013-01-07 23:39:00,
2013-01-07 17:44:00,51.2,36.5,30.11,SE,128,0.0,0.0,57,0.00,,,0.00,WeatherCatV1.02B3,2013-01-07 23:44:00,
2013-01-07 17:49:00,50.9,36.2,30.11,SE,128,0.0,0.0,57,0.00,,,0.00,WeatherCatV1.02B3,2013-01-07 23:49:00,
2013-01-07 17:54:00,50.6,35.9,30.11,SE,128,0.0,0.0,57,0.00,,,0.00,WeatherCatV1.02B3,2013-01-07 23:54:00,
2013-01-07 18:00:00,50.2,36.4,30.10,SE,128,0.0,0.0,59,0.00,,,0.00,WeatherCatV1.02B3,2013-01-08 00:00:00,
2013-01-07 18:05:00,49.9,35.7,30.10,SE,128,0.0,2.0,58,0.00,,,0.00,WeatherCatV1.02B3,2013-01-08 00:05:00,
2013-01-07 18:10:00,49.6,35.9,30.10,SE,128,0.0,0.0,59,0.00,,,0.00,WeatherCatV1.02B3,2013-01-08 00:10:00,
2013-01-07 18:15:00,49.3,36.0,30.10,SE,128,0.0,1.0,60,0.00,,,0.00,WeatherCatV1.02B3,2013-01-08 00:15:00,
2013-01-07 18:20:00,49.0,36.1,30.10,SE,128,0.0,0.0,61,0.00,,,0.00,WeatherCatV1.02B3,2013-01-08 00:20:00,
2013-01-07 18:25:00,48.7,35.4,30.10,SE,128,0.0,0.0,60,0.00,,,0.00,WeatherCatV1.02B3,2013-01-08 00:25:00,
2013-01-07 18:30:00,48.5,36.1,30.11,SE,128,0.0,0.0,62,0.00,,,0.00,WeatherCatV1.02B3,2013-01-08 00:30:00,
2013-01-07 18:35:00,48.3,35.9,30.11,SE,128,0.0,1.0,62,0.00,,,0.00,WeatherCatV1.02B3,2013-01-08 00:35:00,
2013-01-07 18:40:00,48.1,35.7,30.11,SE,128,0.0,0.0,62,0.00,,,0.00,WeatherCatV1.02B3,2013-01-08 00:40:00,
2013-01-07 18:45:00,47.9,35.9,30.11,SE,128,0.0,0.0,63,0.00,,,0.00,WeatherCatV1.02B3,2013-01-08 00:45:00,
2013-01-07 18:50:00,47.7,35.3,30.11,SE,128,0.0,0.0,62,0.00,,,0.00,WeatherCatV1.02B3,2013-01-08 00:50:00,
2013-01-07 18:55:00,47.5,35.5,30.11,SE,128,0.0,0.0,63,0.00,,,0.00,WeatherCatV1.02B3,2013-01-08 00:55:00,
2013-01-07 19:00:00,47.3,35.3,30.11,SE,128,0.0,0.0,63,0.00,,,0.00,WeatherCatV1.02B3,2013-01-08 01:00:00,
2013-01-07 19:05:00,47.0,35.9,30.11,SE,128,0.0,1.0,65,0.00,,,0.00,WeatherCatV1.02B3,2013-01-08 01:05:00,
2013-01-07 19:10:00,46.8,35.7,30.11,SE,128,0.0,0.0,65,0.00,,,0.00,WeatherCatV1.02B3,2013-01-08 01:10:00,
2013-01-07 19:15:00,46.5,35.4,30.11,SE,128,0.0,0.0,65,0.00,,,0.00,WeatherCatV1.02B3,2013-01-08 01:15:00,
2013-01-07 19:20:00,46.3,35.6,30.11,SE,128,0.0,0.0,66,0.00,,,0.00,WeatherCatV1.02B3,2013-01-08 01:20:00,
2013-01-07 19:25:00,46.1,35.4,30.11,SE,128,0.0,0.0,66,0.00,,,0.00,WeatherCatV1.02B3,2013-01-08 01:25:00,
2013-01-07 19:30:00,45.9,35.2,30.10,SE,128,0.0,1.0,66,0.00,,,0.00,WeatherCatV1.02B3,2013-01-08 01:30:00,
2013-01-07 19:35:00,45.7,35.4,30.10,SE,128,0.0,0.0,67,0.00,,,0.00,WeatherCatV1.02B3,2013-01-08 01:35:00,
2013-01-07 19:40:00,45.4,35.1,30.10,SE,128,0.0,0.0,67,0.00,,,0.00,WeatherCatV1.02B3,2013-01-08 01:40:00,
2013-01-07 19:45:00,45.3,35.0,30.11,SE,128,0.0,0.0,67,0.00,,,0.00,WeatherCatV1.02B3,2013-01-08 01:45:00,
2013-01-07 19:50:00,45.2,34.9,30.11,SE,128,0.0,0.0,67,0.00,,,0.00,WeatherCatV1.02B3,2013-01-08 01:50:00,
2013-01-07 19:55:00,45.1,35.2,30.11,SE,128,0.0,0.0,68,0.00,,,0.00,WeatherCatV1.02B3,2013-01-08 01:55:00,
2013-01-07 20:00:00,45.1,35.2,30.11,SE,128,0.0,0.0,68,0.00,,,0.00,WeatherCatV1.02B3,2013-01-08 02:00:00,
2013-01-07 20:05:00,45.0,35.5,30.11,SE,128,0.0,1.0,69,0.00,,,0.00,WeatherCatV1.02B3,2013-01-08 02:05:00,
2013-01-07 20:10:00,44.9,35.4,30.11,SE,128,0.0,0.0,69,0.00,,,0.00,WeatherCatV1.02B3,2013-01-08 02:10:00,
2013-01-07 20:15:00,44.9,35.4,30.11,SE,128,0.0,0.0,69,0.00,,,0.00,WeatherCatV1.02B3,2013-01-08 02:15:00,
2013-01-07 20:20:00,44.8,35.6,30.11,SE,127,0.0,3.0,70,0.00,,,0.00,WeatherCatV1.02B3,2013-01-08 02:20:00,
2013-01-07 20:25:00,44.9,35.4,30.11,ESE,117,1.0,1.0,69,0.00,,,0.00,WeatherCatV1.02B3,2013-01-08 02:25:00,
2013-01-07 20:30:00,44.9,35.4,30.10,SE,128,0.0,2.0,69,0.00,,,0.00,WeatherCatV1.02B3,2013-01-08 02:30:00,
2013-01-07 20:35:00,45.0,35.5,30.10,SSE,165,1.0,1.0,69,0.00,,,0.00,WeatherCatV1.02B3,2013-01-08 02:35:00,
2013-01-07 20:40:00,45.0,35.1,30.10,South,169,0.0,3.0,68,0.00,,,0.00,WeatherCatV1.02B3,2013-01-08 02:40:00,
2013-01-07 20:45:00,45.1,35.2,30.08,ESE,111,0.0,4.0,68,0.00,,,0.00,WeatherCatV1.02B3,2013-01-08 02:45:00,
2013-01-07 20:50:00,45.2,35.3,30.08,East,93,1.0,3.0,68,0.00,,,0.00,WeatherCatV1.02B3,2013-01-08 02:50:00,
2013-01-07 20:55:00,45.2,34.9,30.08,East,101,0.0,2.0,67,0.00,,,0.00,WeatherCatV1.02B3,2013-01-08 02:55:00,
2013-01-07 21:00:00,45.3,35.0,30.08,ESE,121,0.0,0.0,67,0.00,,,0.00,WeatherCatV1.02B3,2013-01-08 03:00:00,
2013-01-07 21:05:00,45.4,35.1,30.08,East,98,0.0,2.0,67,0.00,,,0.00,WeatherCatV1.02B3,2013-01-08 03:05:00,
2013-01-07 21:10:00,45.4,35.1,30.08,East,98,0.0,0.0,67,0.00,,,0.00,WeatherCatV1.02B3,2013-01-08 03:10:00,
2013-01-07 21:15:00,45.4,35.5,30.08,East,98,0.0,0.0,68,0.00,,,0.00,WeatherCatV1.02B3,2013-01-08 03:15:00,
2013-01-07 21:20:00,45.3,35.0,30.08,East,98,0.0,0.0,67,0.00,,,0.00,WeatherCatV1.02B3,2013-01-08 03:20:00,
2013-01-07 21:25:00,45.2,34.9,30.08,SE,126,0.0,0.0,67,0.00,,,0.00,WeatherCatV1.02B3,2013-01-08 03:25:00,
2013-01-07 21:30:00,45.2,34.5,30.08,ESE,111,0.0,2.0,66,0.00,,,0.00,WeatherCatV1.02B3,2013-01-08 03:30:00,
2013-01-07 21:35:00,45.2,34.9,30.08,ESE,111,0.0,0.0,67,0.00,,,0.00,WeatherCatV1.02B3,2013-01-08 03:35:00,
2013-01-07 21:40:00,45.1,34.8,30.08,ESE,110,2.0,2.0,67,0.00,,,0.00,WeatherCatV1.02B3,2013-01-08 03:40:00,
2013-01-07 21:45:00,45.1,34.8,30.08,SSE,150,0.0,1.0,67,0.00,,,0.00,WeatherCatV1.02B3,2013-01-08 03:45:00,
2013-01-07 21:50:00,45.1,34.8,30.08,East,96,0.0,4.0,67,0.00,,,0.00,WeatherCatV1.02B3,2013-01-08 03:50:00,
2013-01-07 21:55:00,45.2,34.9,30.08,East,100,2.0,3.0,67,0.00,,,0.00,WeatherCatV1.02B3,2013-01-08 03:55:00,
2013-01-07 22:00:00,45.3,35.4,30.08,ESE,123,0.0,0.0,68,0.00,,,0.00,WeatherCatV1.02B3,2013-01-08 04:00:00,
2013-01-07 22:05:00,45.4,35.5,30.08,ESE,123,0.0,1.0,68,0.00,,,0.00,WeatherCatV1.02B3,2013-01-08 04:05:00,
2013-01-07 22:10:00,45.4,35.5,30.08,SE,136,0.0,4.0,68,0.00,,,0.00,WeatherCatV1.02B3,2013-01-08 04:10:00,
2013-01-07 22:15:00,45.5,35.2,30.08,SE,136,0.0,0.0,67,0.00,,,0.00,WeatherCatV1.02B3,2013-01-08 04:15:00,
2013-01-07 22:20:00,45.6,35.3,30.08,SE,144,0.0,0.0,67,0.00,,,0.00,WeatherCatV1.02B3,2013-01-08 04:20:00,
2013-01-07 22:25:00,45.6,34.9,30.08,ESE,121,0.0,3.0,66,0.00,,,0.00,WeatherCatV1.02B3,2013-01-08 04:25:00,
2013-01-07 22:30:00,45.7,35.0,30.07,SE,128,0.0,1.0,66,0.00,,,0.00,WeatherCatV1.02B3,2013-01-08 04:30:00,
2013-01-07 22:35:00,45.6,35.3,30.07,SE,128,0.0,0.0,67,0.00,,,0.00,WeatherCatV1.02B3,2013-01-08 04:35:00,
2013-01-07 22:40:00,45.7,35.0,30.07,SSE,150,0.0,1.0,66,0.00,,,0.00,WeatherCatV1.02B3,2013-01-08 04:40:00,
2013-01-07 22:45:00,45.7,35.0,30.07,SE,142,1.0,4.0,66,0.00,,,0.00,WeatherCatV1.02B3,2013-01-08 04:45:00,
2013-01-07 22:50:00,45.8,35.1,30.07,SSE,151,0.0,0.0,66,0.00,,,0.00,WeatherCatV1.02B3,2013-01-08 04:50:00,
2013-01-07 22:55:00,45.8,35.1,30.07,ESE,121,0.0,3.0,66,0.00,,,0.00,WeatherCatV1.02B3,2013-01-08 04:55:00,
2013-01-07 23:00:00,45.8,35.1,30.06,SE,128,0.0,0.0,66,0.00,,,0.00,WeatherCatV1.02B3,2013-01-08 05:00:00,
2013-01-07 23:05:00,45.9,35.2,30.06,SSE,159,0.0,1.0,66,0.00,,,0.00,WeatherCatV1.02B3,2013-01-08 05:05:00,
2013-01-07 23:10:00,45.9,34.8,30.06,South,170,0.0,4.0,65,0.00,,,0.00,WeatherCatV1.02B3,2013-01-08 05:10:00,
2013-01-07 23:15:00,46.0,34.9,30.06,SE,138,0.0,2.0,65,0.00,,,0.00,WeatherCatV1.02B3,2013-01-08 05:15:00,
2013-01-07 23:20:00,46.0,34.9,30.06,SE,126,0.0,2.0,65,0.00,,,0.00,WeatherCatV1.02B3,2013-01-08 05:20:00,
2013-01-07 23:25:00,46.0,34.9,30.06,SE,130,0.0,2.0,65,0.00,,,0.00,WeatherCatV1.02B3,2013-01-08 05:25:00,
2013-01-07 23:30:00,45.9,34.8,30.05,SSE,151,0.0,4.0,65,0.00,,,0.00,WeatherCatV1.02B3,2013-01-08 05:30:00,
2013-01-07 23:35:00,45.9,34.8,30.05,SE,128,0.0,2.0,65,0.00,,,0.00,WeatherCatV1.02B3,2013-01-08 05:35:00,
2013-01-07 23:40:00,45.9,35.2,30.05,SSE,157,0.0,2.0,66,0.00,,,0.00,WeatherCatV1.02B3,2013-01-08 05:40:00,
2013-01-07 23:45:00,45.9,35.2,30.05,SSE,164,3.0,5.0,66,0.00,,,0.00,WeatherCatV1.02B3,2013-01-08 05:45:00,
2013-01-07 23:50:00,46.0,35.3,30.05,SE,138,0.0,3.0,66,0.00,,,0.00,WeatherCatV1.02B3,2013-01-08 05:50:00,
2013-01-07 23:55:00,46.1,35.0,30.05,SSE,162,2.0,5.0,65,0.00,,,0.00,WeatherCatV1.02B3,2013-01-08 05:55:00,